STARLINK-34922

Satellite information

Favourite Embed

Satellite Type and Status

PAYLOADIN ORBIT

Key statistics

Satellite STARLINK-34922 at a glance.

Uptime

27

Days in orbit

Revolutions

≈ 15.4

Per day

Orbit

SSO

Sun Synchronous Orbit

Inclination

97.6

Latest

Satellite identification and parameters

Extended collection of information and parameters for STARLINK-34922.

Object identification

Identified? True

Debris? False

Object name: STARLINK-34922

International designator: 2025-184A

Object number (NORAD): 65273

Object ID (CCSDS): 65273

Country: UNITED STATES OF AMERICA (US)

Current information (Y/N): Y

RCS size: LARGE

Orbital parameters

Period: 93.547 minutes

Inclination: 97.6043 deg

SMA: 6826.214 km

Apoapsis: 448.983 km

Periapsis: 447.176 km

RAAN: 311.4517 deg

Eccentricy: 0.0001324

Argument of periapsis: 120.5315 deg

Mean anomaly: 293.352 deg

Mean motion: 15.39334061 rev/day

Mean motion (dot): 0.00050127 rev/day2

B* drag term: 0.0012794713 1/REarth

Two-line elements (TLE)

Creation date: Sept. 18, 2025, 3:57 a.m.

Reference frame: TEME

Reference center: EARTH

Epoch: Sept. 17, 2025, 10 p.m. UTC

TLE line 0: 0 STARLINK-34922

TLE line 1: 1 65273U 25184A 25260.91668981 .00050127 00000-0 12795-2 0 9997

TLE line 2: 2 65273 97.6043 311.4517 0001324 120.5315 293.3520 15.39334061 5333

Live tracking on map

Real-time ground track for satellite STARLINK-34922.

In-orbit conjunctions

There are no conjunctions computed for STARLINK-34922, at the moment. Check back to stay up to date, as we update our databases every day.

Go to all conjunctions

Associated space launch

A batch of 24 satellites for the Starlink mega-constellation - SpaceX's project for space-based Internet communication system.

STARLINK-34922 was lifted into orbit during the mission ‘Falcon 9 Block 5 | Starlink Group 17-6’, on board a Falcon 9 space rocket.

The launch took place on Aug. 22, 2025, 5:04 p.m. from Space Launch Complex 4E.

For more information about the launch, click the button.

Launch to space Falcon 9 Block 5 | Starlink Group 17-6
Falcon 9 Block 5 | Starlink Group 17-6

Agency: SpaceX

Status: Launch Successful

Launch date: Aug. 22, 2025, 5:04 p.m. UTC

Rocket: Falcon 9

Launch pad: Space Launch Complex 4E

Location: Vandenberg SFB, CA, USA

...

Latest news about this satellite

News about space launch
Live coverage: SpaceX to launch 24 Starlink satellites on Falcon 9 rocket from Vandenberg SFB

The mission will include the 1,800th Starlink satellite launched in 2025. SpaceX is targeting liftoff from pad 4E at Vandenberg Space Force Base at 10:02 a.m. PDT (1:02 p.m. EDT / 1702 UTC).

News about space launch
Launch Roundup: SpaceX, Chinese, and Russian missions make up busy week

A Chinese rocket, a pair of Russian missions, a trio of Falcon 9 launches, and… The post Launch Roundup: SpaceX, Chinese, and Russian missions make up busy week appeared first on NASASpaceFlight.com.

News about space launch
Launch Roundup: Falcon 9, Starship, and Russia flying this week

A pair of Russian space missions, a trio of Falcon 9 launches, and the long-awaited… The post Launch Roundup: Falcon 9, Starship, and Russia flying this week appeared first on NASASpaceFlight.com.


Newsletter sign-up

Weekly statistics, charts and insights to help you stay on top of the space industry.